Weather History for Princeton, MN

Change the Weather History Date:

Tuesday, October 8, 2013

  Actual Average Record
Temperature  
Mean Temperature 62 °F -  
Max Temperature 77 °F 59 °F 82 °F (2010)
Min Temperature 46 °F 37 °F 19 °F (2000)
Degree Days  
Heating Degree Days 4    
Growing Degree Days 12 (Base 50)    
Moisture  
Dew Point 45 °F    
Average Humidity 55    
Maximum Humidity 87    
Minimum Humidity 34    
Precipitation  
Precipitation 0.00 in - - ()
Sea Level Pressure  
Sea Level Pressure 29.86 in    
Wind  
Wind Speed 9 mph (SSE)    
Max Wind Speed 23 mph    
Max Gust Speed 30 mph    
Visibility 10 miles    
Events      
Averages and records for this station are not official NWS values.
T = Trace of Precipitation, MM = Missing Value Source: NWS Daily Summary

Daily Weather History Graph

Daily Weather History Graph

Search for Another Location

Airport:

Trip Planner

Search our weather history database for the weather conditions in past years. The results will help you decide how hot, cold, wet, or windy it might be!

Date:

Astronomy

Oct. 08, 2013 Rise Set
Actual Time 7:21 AM CDT 6:41 PM CDT
Civil Twilight 6:52 AM CDT 7:10 PM CDT
Nautical Twilight 6:17 AM CDT 7:44 PM CDT
Astronomical Twilight 5:43 AM CDT 8:19 PM CDT
Moon 11:28 AM CDT (10/8) 9:06 PM CDT (10/8)
Length of Visible Light 12h 18m
Length of Day
11h 19m
Waxing Crescent, 16% of the Moon is Illuminated
Oct 8
Waxing Crescent
Oct 11
First Quarter
Oct 18
Full
Oct 26
Last Quarter
Nov 3
New

Hourly Weather History & Observations

Time (CDT) Temp. Windchill Dew Point Humidity Pressure Visibility Wind Dir Wind Speed Gust Speed Precip Events Conditions
12:14 AM 46.4 °F - 42.8 °F 87% 29.95 in 10.0 mi Calm Calm - N/A   Clear
12:33 AM 46.4 °F 45.2 °F 42.8 °F 87% 29.95 in 10.0 mi ESE 3.5 mph - N/A   Clear
12:53 AM 46.4 °F - 42.8 °F 87% 29.95 in 10.0 mi Calm Calm - N/A   Clear
1:13 AM 46.4 °F 45.2 °F 42.8 °F 87% 29.95 in 10.0 mi ESE 3.5 mph - N/A   Clear
1:33 AM 46.4 °F 44.3 °F 42.8 °F 87% 29.95 in 10.0 mi SE 4.6 mph - N/A   Clear
1:53 AM 50.0 °F - 42.8 °F 76% 29.95 in 10.0 mi SE 6.9 mph - N/A   Clear
2:13 AM 51.8 °F - 42.8 °F 71% 29.94 in 10.0 mi SE 8.1 mph - N/A   Clear
2:33 AM 51.8 °F - 42.8 °F 71% 29.93 in 10.0 mi SE 9.2 mph - N/A   Clear
2:53 AM 53.6 °F - 42.8 °F 67% 29.92 in 10.0 mi SE 8.1 mph - N/A   Clear
3:13 AM 51.8 °F - 42.8 °F 71% 29.92 in 10.0 mi SE 8.1 mph - N/A   Clear
3:33 AM 51.8 °F - 42.8 °F 71% 29.92 in 10.0 mi SE 8.1 mph - N/A   Clear
3:53 AM 51.8 °F - 42.8 °F 71% 29.92 in 10.0 mi SE 8.1 mph - N/A   Clear
4:13 AM 51.8 °F - 42.8 °F 71% 29.91 in 10.0 mi SE 6.9 mph - N/A   Clear
4:33 AM 51.8 °F - 42.8 °F 71% 29.91 in 10.0 mi SE 5.8 mph - N/A   Clear
4:53 AM 51.8 °F - 42.8 °F 71% 29.91 in 10.0 mi SE 6.9 mph - N/A   Clear
5:13 AM 51.8 °F - 42.8 °F 71% 29.90 in 10.0 mi SE 9.2 mph - N/A   Clear
5:33 AM 51.8 °F - 42.8 °F 71% 29.90 in 10.0 mi SE 8.1 mph - N/A   Clear
5:53 AM 51.8 °F - 42.8 °F 71% 29.90 in 10.0 mi SE 9.2 mph - N/A   Clear
6:13 AM 51.8 °F - 42.8 °F 71% 29.89 in 10.0 mi ESE 8.1 mph - N/A   Clear
6:33 AM 50.0 °F - 42.8 °F 76% 29.89 in 10.0 mi ESE 5.8 mph - N/A   Clear
6:53 AM 48.2 °F - 42.8 °F 82% 29.88 in 10.0 mi SE 9.2 mph - N/A   Clear
7:13 AM 51.8 °F - 42.8 °F 71% 29.88 in 10.0 mi SE 8.1 mph - N/A   Clear
7:33 AM 51.8 °F - 42.8 °F 71% 29.88 in 10.0 mi SE 6.9 mph - N/A   Clear
7:53 AM 53.6 °F - 44.6 °F 72% 29.88 in 10.0 mi SE 11.5 mph 17.3 mph N/A   Clear
8:13 AM 53.6 °F - 44.6 °F 72% 29.87 in 10.0 mi SE 12.7 mph 19.6 mph N/A   Clear
8:33 AM 55.4 °F - 44.6 °F 67% 29.87 in 10.0 mi SSE 11.5 mph - N/A   Clear
8:53 AM 57.2 °F - 44.6 °F 63% 29.86 in 10.0 mi SSE 11.5 mph - N/A   Clear
9:14 AM 57.2 °F - 44.6 °F 63% 29.86 in 10.0 mi SSE 11.5 mph 18.4 mph N/A   Clear
9:33 AM 60.8 °F - 46.4 °F 59% 29.86 in 10.0 mi SSE 11.5 mph - N/A   Clear
9:53 AM 62.6 °F - 46.4 °F 55% 29.85 in 10.0 mi SSE 13.8 mph - N/A   Clear
10:13 AM 62.6 °F - 46.4 °F 55% 29.85 in 10.0 mi SSE 13.8 mph - N/A   Clear
10:33 AM 64.4 °F - 46.4 °F 52% 29.85 in 10.0 mi SSE 12.7 mph 17.3 mph N/A   Clear
10:53 AM 66.2 °F - 46.4 °F 49% 29.84 in 10.0 mi SSE 12.7 mph 19.6 mph N/A   Clear
11:14 AM 68.0 °F - 46.4 °F 46% 29.83 in 10.0 mi SSE 15.0 mph 19.6 mph N/A   Clear
11:33 AM 69.8 °F - 46.4 °F 43% 29.83 in 10.0 mi SSE 17.3 mph 21.9 mph N/A   Clear
11:53 AM 71.6 °F - 46.4 °F 41% 29.83 in 10.0 mi SSE 15.0 mph 20.7 mph N/A   Clear
12:14 PM 71.6 °F - 46.4 °F 41% 29.82 in 10.0 mi South 15.0 mph 19.6 mph N/A   Clear
12:33 PM 73.4 °F - 46.4 °F 38% 29.81 in 10.0 mi South 18.4 mph 23.0 mph N/A   Clear
12:53 PM 73.4 °F - 46.4 °F 38% 29.81 in 10.0 mi SSE 13.8 mph 25.3 mph N/A   Clear
1:13 PM 73.4 °F - 46.4 °F 38% 29.81 in 10.0 mi SSE 12.7 mph 26.5 mph N/A   Clear
1:33 PM 75.2 °F - 46.4 °F 36% 29.79 in 10.0 mi SSE 17.3 mph 24.2 mph N/A   Clear
1:53 PM 75.2 °F - 46.4 °F 36% 29.79 in 10.0 mi South 17.3 mph 24.2 mph N/A   Clear
2:13 PM 77.0 °F - 46.4 °F 34% 29.78 in 10.0 mi SSE 15.0 mph 26.5 mph N/A   Clear
2:33 PM 77.0 °F - 46.4 °F 34% 29.78 in 10.0 mi SSE 23.0 mph 27.6 mph N/A   Clear
2:53 PM 75.2 °F - 46.4 °F 36% 29.78 in 10.0 mi SSE 15.0 mph 26.5 mph N/A   Clear
3:13 PM 75.2 °F - 48.2 °F 38% 29.78 in 10.0 mi SSE 16.1 mph 25.3 mph N/A   Clear
3:33 PM 77.0 °F - 46.4 °F 34% 29.78 in 10.0 mi South 16.1 mph 28.8 mph N/A   Clear
3:53 PM 77.0 °F - 46.4 °F 34% 29.78 in 10.0 mi SSE 19.6 mph 26.5 mph N/A   Clear
4:13 PM 75.2 °F - 46.4 °F 36% 29.78 in 10.0 mi SSE 16.1 mph 26.5 mph N/A   Clear
4:33 PM 75.2 °F - 46.4 °F 36% 29.78 in 10.0 mi SSE 16.1 mph 25.3 mph N/A   Clear
4:53 PM 75.2 °F - 46.4 °F 36% 29.78 in 10.0 mi SSE 15.0 mph 20.7 mph N/A   Clear
5:13 PM 75.2 °F - 44.6 °F 34% 29.78 in 10.0 mi SSE 17.3 mph 26.5 mph N/A   Clear
5:33 PM 73.4 °F - 44.6 °F 36% 29.78 in 10.0 mi SSE 21.9 mph 29.9 mph N/A   Clear
5:53 PM 73.4 °F - 44.6 °F 36% 29.78 in 10.0 mi SSE 17.3 mph 23.0 mph N/A   Clear
6:13 PM 73.4 °F - 44.6 °F 36% 29.78 in 10.0 mi SSE 18.4 mph 26.5 mph N/A   Clear
6:33 PM 71.6 °F - 44.6 °F 38% 29.78 in 10.0 mi SSE 17.3 mph 23.0 mph N/A   Clear
6:53 PM 71.6 °F - 44.6 °F 38% 29.79 in 10.0 mi SSE 11.5 mph 20.7 mph N/A   Clear
7:13 PM 69.8 °F - 44.6 °F 40% 29.81 in 10.0 mi South 10.4 mph 18.4 mph N/A   Clear
7:33 PM 69.8 °F - 44.6 °F 40% 29.82 in 10.0 mi SSE 9.2 mph - N/A   Clear
7:53 PM 68.0 °F - 44.6 °F 43% 29.83 in 10.0 mi SSE 9.2 mph - N/A   Clear
8:13 PM 66.2 °F - 44.6 °F 46% 29.84 in 10.0 mi SSE 8.1 mph - N/A   Clear
8:33 PM 66.2 °F - 44.6 °F 46% 29.85 in 10.0 mi SSE 8.1 mph - N/A   Clear
8:53 PM 64.4 °F - 46.4 °F 52% 29.85 in 10.0 mi SSE 9.2 mph - N/A   Clear
9:13 PM 66.2 °F - 44.6 °F 46% 29.85 in 10.0 mi SSE 11.5 mph 19.6 mph N/A   Clear
9:33 PM 66.2 °F - 46.4 °F 49% 29.86 in 10.0 mi SSE 9.2 mph 17.3 mph N/A   Clear
9:53 PM 66.2 °F - 46.4 °F 49% 29.86 in 10.0 mi SSE 13.8 mph - N/A   Clear
10:13 PM 66.2 °F - 46.4 °F 49% 29.87 in 10.0 mi SSE 10.4 mph - N/A   Clear
10:33 PM 66.2 °F - 46.4 °F 49% 29.87 in 10.0 mi SSE 12.7 mph 16.1 mph N/A   Clear
10:53 PM 66.2 °F - 46.4 °F 49% 29.88 in 10.0 mi SSE 12.7 mph 19.6 mph N/A   Clear
11:13 PM 66.2 °F - 46.4 °F 49% 29.88 in 7.0 mi South 15.0 mph 20.7 mph N/A   Clear
11:33 PM 66.2 °F - 46.4 °F 49% 29.89 in 10.0 mi South 15.0 mph - N/A   Clear
11:53 PM 66.2 °F - 46.4 °F 49% 29.89 in 10.0 mi South 13.8 mph 23.0 mph N/A   Clear